Wind_Speed
54 62 65 75 77 77 80 80 81 79 79 76 72 67 65 60 55 54 50 48 50 50 43 40 40 40 38 37 37 39 38 39 37 33 31 30 31 32 35 43 44 46 45 44
51 57 66 72 79 75 76 74 74 72 72 68 65 63 57 54 56 54 50 50 52 49 41 41 42 42 40 39 40 39 39 40 38 35 35 34 33 33 34 35 41 45 46 47
54 56 65 66 66 66 67 68 70 68 66 62 59 54 51 55 55 52 51 52 54 49 42 42 45 44 44 41 41 41 39 40 39 37 36 37 36 35 35 36 37 39 45 48
56 55 62 64 63 63 63 62 63 59 58 55 57 52 50 51 53 53 53 55 54 50 45 46 47 46 45 42 42 42 41 42 42 40 38 38 38 39 39 39 39 39 40 41
56 59 61 63 62 64 62 62 60 58 56 56 54 51 53 52 55 56 55 55 54 51 47 50 49 48 45 44 43 44 45 45 44 44 41 41 41 43 44 43 43 44 44 44
58 61 62 62 62 62 61 60 60 59 57 51 55 53 56 53 56 55 57 56 54 53 49 51 50 50 50 49 47 47 48 49 49 48 47 46 46 45 47 48 48 47 47 48
62 61 62 62 64 64 60 61 61 58 56 51 58 58 54 56 57 57 57 56 54 52 51 52 51 54 54 53 52 52 51 51 52 51 51 50 49 50 50 52 53 53 52 52
63 61 61 62 63 65 65 61 60 57 57 58 62 55 53 60 59 59 58 57 54 53 54 55 55 56 57 56 56 55 53 52 54 54 54 53 54 54 54 55 57 58 58 58
62 60 63 63 62 65 64 62 63 62 60 57 56 55 57 58 60 58 57 54 57 58 56 56 59 60 60 59 57 56 55 56 56 56 57 58 60 59 59 58 59 60 61 62
60 61 64 64 62 60 64 63 62 62 62 62 61 58 56 56 56 57 58 59 58 58 60 61 61 61 61 61 60 59 59 59 59 60 62 63 63 62 61 61 62 62 63 65
61 62 65 66 63 61 64 64 64 65 62 59 59 55 56 57 59 61 61 60 60 60 60 60 61 62 63 63 61 62 63 63 64 65 66 66 66 65 65 65 66 66 68 68
61 60 62 63 64 62 63 63 63 63 59 60 59 54 57 60 63 62 62 62 63 64 65 64 64 65 66 66 66 66 66 66 67 67 67 66 66 67 69 69 70 72 73 74
58 56 61 64 61 60 62 65 66 66 63 58 62 57 61 63 64 65 65 66 66 67 68 68 68 68 68 68 68 68 68 69 69 69 70 71 72 73 74 75 76 77 77 78
57 57 60 64 62 62 60 60 62 62 59 61 59 61 62 63 64 66 68 68 68 69 70 70 70 71 72 72 72 71 72 71 72 73 75 77 78 79 80 82 82 83 84 84
56 56 59 65 69 66 63 63 64 64 65 63 61 64 67 67 68 68 68 70 71 71 71 72 73 75 75 76 76 75 76 77 78 81 82 83 84 84 84 84 85 86 87 87
56 56 60 65 71 69 67 66 65 64 64 63 65 65 69 69 67 69 70 71 73 74 74 75 77 78 80 81 82 84 85 86 87 87 87 85 85 85 84 85 86 87 88 90
54 57 59 59 61 65 64 63 67 68 68 68 67 69 71 70 70 72 73 73 74 76 77 79 80 83 86 88 89 90 91 92 92 90 87 84 85 87 88 89 92 94 96 98
59 60 62 62 61 60 57 65 69 68 69 69 70 72 74 74 75 75 76 76 78 80 82 84 86 88 91 94 95 95 95 97 93 90 90 90 91 92 94 97 100 103 105 107
53 54 58 63 68 68 66 69 72 72 74 75 76 77 78 79 79 79 81 83 83 84 87 89 92 94 96 97 98 98 96 96 95 96 98 99 100 101 103 105 108 111 114 116
53 56 57 57 61 65 69 72 75 75 72 77 78 79 80 81 80 83 85 87 88 91 93 94 96 97 98 98 99 98 98 99 100 102 104 106 107 110 112 115 118 119 120 122
62 61 59 60 61 61 65 70 73 73 74 79 80 82 83 84 85 87 89 92 94 95 96 97 98 99 100 101 101 103 104 105 107 108 110 112 114 116 118 121 122 125 127 127
66 66 66 69 71 72 76 78 80 79 81 82 83 85 87 90 91 92 94 94 97 97 100 102 103 103 104 105 107 107 107 109 112 114 116 119 121 123 125 127 129 129 130 131
69 71 72 74 76 78 80 82 84 85 86 87 88 89 90 93 96 98 99 100 101 103 105 106 108 110 110 109 110 113 115 118 121 123 123 125 126 127 129 130 130 128 128 126
76 79 79 82 83 86 86 87 88 89 91 92 95 97 98 99 101 103 105 105 107 110 112 114 113 113 114 116 118 121 123 125 126 126 126 128 128 127 126 125 123 120 118 115
85 87 89 90 91 93 93 94 95 95 96 99 101 103 104 106 108 110 112 113 115 116 116 116 118 118 121 124 124 126 126 125 126 126 125 124 123 121 119 117 114 111 109 106
93 94 96 97 98 98 98 102 103 103 105 106 106 107 108 109 110 111 111 114 115 117 120 123 126 128 126 126 125 125 125 124 124 123 121 117 114 112 110 108 107 104 101 100
Wind_Direction
260 254 250 247 249 251 252 254 256 259 261 264 266 266 268 270 269 270 269 269 267 265 272 281 272 273 274 269 268 274 276 278 279 279 280 274 267 262 258 252 251 251 251 251
264 258 252 250 249 248 252 254 255 255 257 260 262 264 266 266 265 266 265 265 266 262 274 276 271 271 271 266 270 270 277 277 275 275 277 275 270 264 261 259 255 254 254 254
263 258 257 255 251 249 249 250 253 254 256 257 257 259 259 261 262 262 263 264 263 261 273 272 269 270 268 266 267 270 276 276 272 273 276 274 270 265 262 261 260 259 256 255
266 259 254 253 253 249 247 247 249 250 250 251 253 254 257 258 259 259 260 262 262 260 272 268 271 268 267 266 268 271 274 273 271 272 272 271 271 269 266 263 262 260 260 259
267 260 255 252 251 248 248 248 248 247 246 247 252 253 254 251 257 259 259 259 260 261 266 267 268 266 265 265 269 273 273 272 268 269 272 271 271 270 268 266 263 262 261 260
265 258 255 252 245 242 243 246 247 246 247 249 250 249 252 253 253 256 257 258 258 261 261 263 264 265 266 266 271 275 273 271 268 267 269 271 269 270 269 267 267 266 265 264
263 257 254 251 246 241 241 242 243 243 245 242 246 247 249 253 252 252 254 255 259 260 261 260 260 261 264 267 271 274 273 270 269 268 270 270 270 270 269 267 266 266 267 267
261 255 252 248 243 238 236 237 240 242 242 242 246 248 248 249 253 254 254 255 257 258 263 263 261 264 266 269 271 271 271 269 268 268 269 270 273 273 271 268 266 265 266 268
259 253 249 243 241 239 238 239 241 241 241 243 246 248 248 250 251 254 256 256 260 260 260 263 266 266 266 267 269 269 268 267 268 267 268 272 274 274 272 268 267 266 266 267
255 249 246 239 238 239 240 242 241 242 243 246 248 246 249 250 253 255 258 262 258 259 265 265 265 265 266 268 269 268 268 268 269 269 271 272 273 271 270 268 268 267 267 267
250 249 243 238 235 234 236 240 243 243 243 245 244 243 250 252 253 257 258 258 262 263 263 265 265 266 269 270 270 269 271 272 272 272 273 272 271 270 269 269 267 266 267 268
246 244 240 237 235 234 235 237 243 245 244 244 248 245 251 255 255 254 258 261 261 262 265 265 265 266 268 269 269 270 272 275 275 273 272 272 271 271 270 270 269 270 271 271
244 240 235 233 234 236 237 240 244 246 246 246 249 248 250 251 255 258 260 260 262 265 265 266 267 267 267 267 269 271 274 275 275 275 274 274 273 273 272 272 271 271 270 270
240 239 234 231 231 236 237 240 243 245 246 248 249 249 250 253 254 258 260 262 263 264 264 266 266 267 268 269 271 274 275 275 276 277 276 275 275 274 273 272 272 270 269 269
236 236 235 229 231 233 237 242 246 247 248 249 250 254 255 255 256 258 259 260 261 262 263 265 266 268 268 270 273 274 275 277 278 279 279 279 278 275 274 272 271 271 271 270
235 234 233 232 231 233 237 242 247 251 251 250 250 253 256 255 256 257 259 260 260 263 265 264 265 267 269 271 273 274 277 279 280 280 280 277 274 274 273 273 273 273 273 274
239 238 233 234 237 239 241 247 248 249 252 253 254 252 254 258 260 261 262 263 264 264 264 264 265 267 269 271 273 275 276 277 279 279 276 274 273 273 272 272 272 272 272 273
240 241 238 235 239 242 244 247 250 250 252 254 255 257 259 260 261 263 264 265 265 266 266 267 268 269 270 272 274 275 276 278 278 278 276 275 274 274 274 273 273 274 275 276
242 245 245 243 243 243 246 251 253 254 255 256 258 259 261 262 264 265 264 264 263 264 266 267 270 272 273 275 276 277 277 278 277 277 276 275 275 276 276 275 275 275 276 277
243 243 244 244 246 249 250 252 254 254 257 258 259 259 260 262 264 264 264 265 266 267 269 271 272 273 274 275 275 276 277 278 278 278 277 277 276 276 275 275 276 277 277 277
246 247 248 247 248 248 250 250 251 253 254 257 260 261 262 263 263 264 266 267 269 270 271 271 272 274 275 275 276 277 277 277 277 278 278 278 278 278 277 278 278 279 279 278
248 249 250 251 252 253 254 255 256 256 257 259 260 262 263 265 266 267 268 269 269 270 272 273 274 275 276 277 277 277 277 277 279 280 280 280 280 280 279 279 280 279 279 279
250 250 251 253 252 252 252 254 255 257 258 260 262 263 264 266 268 270 271 272 273 273 275 276 276 277 277 277 277 278 280 281 281 281 281 281 280 280 279 279 279 279 279 280
252 253 254 255 256 256 257 258 259 260 261 262 263 265 266 267 268 269 270 271 272 273 274 276 276 276 277 279 281 281 281 281 281 281 280 280 280 280 280 280 281 280 280 280
257 258 259 259 260 260 261 262 262 262 262 263 264 265 266 267 269 270 270 271 272 274 275 277 279 281 281 281 280 281 281 280 280 280 280 280 281 282 281 280 280 281 280 280
259 260 261 261 262 263 264 265 266 266 266 266 267 267 268 269 270 273 274 275 276 278 279 279 279 280 280 281 281 281 281 281 281 281 281 281 281 280 280 280 280 280 279 278
Height
10590 10595 10600 10596 10604 10610 10612 10617 10622 10627 10627 10632 10636 10640 10643 10646 10647 10648 10649 10651 10653 10654 10654 10655 10654 10653 10652 10652 10651 10651 10650 10649 10648 10647 10647 10647 10647 10647 10648 10649 10650 10651 10653 10655
10577 10582 10577 10582 10588 10593 10598 10603 10604 10610 10614 10618 10623 10627 10632 10633 10634 10636 10638 10640 10641 10642 10644 10645 10644 10643 10643 10642 10642 10641 10641 10640 10639 10639 10639 10639 10639 10639 10639 10639 10639 10641 10643 10645
10563 10567 10564 10568 10574 10578 10582 10588 10588 10595 10598 10604 10607 10614 10620 10619 10622 10624 10625 10628 10629 10630 10632 10634 10634 10634 10633 10633 10632 10632 10631 10631 10630 10631 10631 10631 10631 10630 10630 10630 10630 10631 10632 10634
10550 10554 10551 10554 10559 10562 10567 10571 10574 10580 10584 10591 10592 10602 10608 10608 10608 10611 10612 10615 10618 10619 10620 10622 10624 10623 10623 10623 10622 10622 10622 10621 10621 10622 10622 10622 10622 10621 10621 10621 10621 10622 10622 10623
10537 10536 10537 10541 10546 10547 10556 10555 10561 10565 10571 10577 10582 10588 10590 10594 10596 10597 10600 10602 10604 10607 10609 10610 10612 10613 10613 10612 10612 10612 10611 10611 10611 10611 10612 10612 10612 10611 10610 10610 10611 10611 10612 10612
10523 10521 10523 10528 10529 10533 10540 10543 10547 10552 10558 10570 10566 10572 10575 10581 10581 10584 10586 10590 10592 10593 10596 10598 10599 10601 10602 10601 10600 10600 10600 10599 10599 10600 10600 10600 10600 10600 10599 10599 10600 10600 10601 10601
10504 10506 10509 10512 10516 10520 10527 10529 10534 10540 10547 10557 10548 10556 10566 10565 10568 10572 10574 10576 10578 10580 10582 10585 10587 10588 10589 10588 10588 10588 10587 10587 10587 10588 10588 10588 10588 10587 10587 10588 10588 10588 10589 10589
10487 10490 10494 10498 10502 10506 10509 10516 10523 10529 10534 10538 10536 10551 10557 10551 10552 10558 10561 10564 10565 10567 10569 10571 10573 10575 10575 10575 10575 10575 10575 10575 10575 10575 10576 10575 10575 10575 10575 10575 10575 10575 10575 10575
10471 10474 10477 10482 10486 10491 10500 10507 10507 10513 10520 10525 10531 10537 10538 10539 10539 10541 10546 10550 10553 10554 10556 10558 10560 10561 10561 10562 10562 10561 10561 10561 10561 10562 10562 10562 10561 10561 10561 10560 10560 10561 10561 10560
10455 10458 10462 10466 10473 10481 10487 10490 10495 10502 10508 10512 10519 10522 10525 10524 10526 10529 10531 10535 10538 10540 10542 10543 10544 10545 10545 10546 10546 10547 10547 10547 10547 10547 10547 10546 10545 10545 10544 10544 10544 10544 10544 10543
10437 10442 10447 10452 10461 10465 10471 10477 10482 10485 10494 10499 10503 10511 10508 10510 10513 10515 10517 10519 10522 10524 10526 10528 10528 10528 10528 10529 10529 10530 10530 10530 10530 10530 10529 10528 10527 10527 10527 10526 10527 10526 10526 10525
10420 10427 10434 10441 10445 10452 10460 10465 10468 10472 10478 10482 10487 10499 10497 10497 10497 10498 10501 10504 10507 10509 10510 10511 10512 10512 10512 10512 10512 10512 10512 10512 10512 10511 10511 10510 10510 10509 10509 10508 10508 10507 10507 10505
10407 10417 10420 10427 10435 10442 10447 10449 10451 10456 10462 10472 10473 10485 10477 10480 10481 10483 10487 10489 10490 10491 10492 10493 10493 10494 10494 10494 10494 10494 10494 10494 10493 10493 10492 10492 10491 10490 10489 10488 10487 10486 10485 10484
10393 10403 10409 10416 10422 10426 10432 10434 10437 10441 10450 10454 10460 10459 10462 10464 10468 10469 10470 10472 10473 10474 10474 10474 10475 10475 10475 10475 10475 10475 10474 10474 10474 10473 10472 10471 10470 10468 10467 10465 10464 10464 10462 10462
10382 10389 10394 10400 10405 10411 10417 10421 10423 10429 10432 10437 10443 10443 10443 10448 10450 10454 10456 10455 10455 10455 10456 10456 10456 10456 10456 10455 10455 10454 10454 10453 10452 10451 10450 10448 10446 10444 10443 10441 10440 10439 10438 10436
10370 10376 10379 10385 10391 10397 10402 10407 10412 10414 10417 10421 10423 10428 10425 10429 10434 10436 10436 10437 10437 10437 10438 10437 10437 10436 10436 10435 10433 10432 10431 10430 10428 10427 10425 10423 10421 10420 10419 10417 10416 10414 10413 10410
10360 10365 10368 10375 10379 10383 10395 10398 10394 10395 10399 10404 10410 10405 10408 10413 10414 10415 10416 10417 10417 10417 10417 10417 10417 10416 10415 10413 10411 10410 10409 10407 10405 10403 10401 10399 10397 10396 10394 10393 10390 10388 10386 10385
10349 10352 10354 10363 10366 10374 10383 10376 10375 10381 10384 10387 10388 10387 10391 10393 10393 10394 10395 10396 10396 10395 10395 10396 10396 10394 10391 10389 10388 10386 10385 10383 10380 10378 10375 10373 10371 10369 10367 10364 10361 10358 10356 10352
10336 10338 10343 10347 10351 10359 10365 10360 10359 10364 10366 10368 10369 10369 10369 10371 10373 10375 10373 10373 10373 10373 10373 10372 10370 10369 10366 10364 10362 10360 10357 10354 10352 10350 10346 10344 10342 10339 10336 10333 10329 10325 10323 10319
10322 10324 10327 10332 10335 10342 10344 10343 10342 10345 10353 10348 10348 10349 10348 10350 10354 10351 10349 10350 10350 10348 10348 10346 10344 10342 10339 10337 10334 10331 10329 10326 10323 10320 10317 10314 10311 10308 10304 10299 10294 10289 10286 10281
10307 10309 10314 10314 10319 10325 10324 10321 10321 10328 10330 10326 10328 10328 10328 10328 10328 10327 10326 10324 10323 10322 10320 10318 10316 10313 10311 10308 10305 10303 10300 10296 10292 10288 10284 10280 10276 10272 10267 10261 10254 10249 10245 10240
10290 10292 10295 10296 10301 10306 10301 10303 10303 10307 10307 10307 10306 10304 10303 10303 10302 10302 10300 10297 10296 10294 10292 10289 10286 10284 10280 10278 10275 10271 10267 10263 10258 10253 10248 10243 10237 10232 10227 10221 10213 10208 10202 10198
10272 10273 10274 10276 10278 10280 10280 10279 10281 10283 10285 10285 10284 10281 10278 10276 10276 10274 10271 10269 10266 10263 10261 10258 10256 10252 10248 10244 10240 10236 10231 10226 10220 10215 10209 10203 10197 10192 10186 10179 10173 10168 10162 10158
10252 10251 10254 10252 10256 10255 10258 10260 10260 10261 10261 10260 10259 10257 10254 10251 10249 10246 10243 10240 10237 10234 10231 10227 10224 10220 10215 10210 10204 10199 10195 10189 10182 10175 10169 10162 10156 10150 10144 10138 10133 10128 10122 10118
10231 10230 10230 10229 10230 10230 10232 10232 10232 10232 10232 10231 10229 10227 10225 10223 10221 10217 10214 10210 10206 10201 10197 10193 10188 10183 10179 10175 10168 10162 10155 10149 10142 10135 10128 10121 10116 10110 10104 10098 10094 10090 10085 10081
10205 10203 10201 10202 10201 10201 10202 10201 10201 10200 10199 10198 10197 10195 10193 10190 10187 10184 10179 10175 10171 10166 10161 10156 10152 10147 10141 10136 10128 10121 10114 10107 10100 10094 10089 10084 10078 10072 10067 10063 10059 10055 10051 10046